Flag for U.S.A. Weather past 2 weeks in Macon, Georgia, U.S.A.

Now
75 °F

Passing clouds.


Feels Like: 74 °F
Forecast: 72 / 90 °F
Wind: 7 mph from Southwest

Location: Middle Georgia Regional Airport

Current Time: Jul 3, 2015 at 6:51:55 AM

Latest Report: Jul 3, 2015 at 5:53 AM


Visibility: 10 mi

Pressure: 29.97 "Hg

Humidity: 90%

Dew point: 72 °F

Location of MaconLocation

Historic Weather in Macon — Graph

°F

Macon temperature yesterday

Maximum temperature yesterday: 92 °F (at 3:53 PM)
Minimum temperature yesterday: 69 °F (at 12:53 AM)
Average temperature yesterday: 76 °F

Past Weeks' High & Low Weather Summary

 TemperatureHumidityPressure
High100 °F (Jun 18, 5:53 PM)100% (Jun 28, 1:03 AM)30.11 "Hg (Jun 28, 1:03 AM)
Low63 °F (Jun 29, 5:53 AM)33% (Jun 18, 5:53 PM)29.83 "Hg (Jun 27, 5:53 PM)
Average80 °F74%30.01 "Hg
* Reported Jun 18 4:53 AM — Jul 3 4:53 AM, Macon, Weather by CustomWeather, © 2015

Note: Actual official high and low records may vary slightly from our data, if they occured in-between our weather recording intervals... More about our weather records

Advertising

Macon weather history for previous 24 hours

 ConditionsComfort  
Time TempWeatherWind HumidityBarometerVisibility
4:53 AM
Fri, Jul 3
75 °FPassing clouds.6 mph90%29.97 "Hg10 mi
3:53 AM74 °FMostly cloudy.8 mph94%29.96 "Hg9 mi
2:53 AM74 °FPassing clouds.5 mph91%29.98 "Hg9 mi
1:53 AM74 °FPassing clouds.5 mph91%29.99 "Hg9 mi
12:53 AM74 °FPassing clouds.6 mph91%29.99 "Hg9 mi
11:53 PM
Thu, Jul 2
74 °FPassing clouds.6 mph91%30.00 "Hg9 mi
10:53 PM74 °FLow clouds.3 mph91%29.99 "Hg9 mi
9:53 PM73 °FPassing clouds.5 mph94%29.98 "Hg9 mi
8:53 PM74 °FSunny.6 mph91%29.99 "Hg10 mi
7:53 PM74 °FSunny.5 mph88%29.99 "Hg10 mi
6:53 PM74 °FSunny.6 mph88%29.98 "Hg10 mi
5:53 PM73 °FSunny.N/A88%29.98 "Hg10 mi
4:53 PM73 °FLight rain. Scattered clouds.8 mph88%29.98 "Hg10 mi
3:53 PM92 °FPassing clouds.16 mph47%29.94 "Hg10 mi
2:53 PM89 °FPartly sunny.14 mph55%29.95 "Hg10 mi
1:53 PM90 °FPassing clouds.9 mph52%29.97 "Hg10 mi
12:53 PM90 °FPassing clouds.10 mph54%30.01 "Hg10 mi
11:53 AM86 °FSunny.7 mph61%30.03 "Hg10 mi
10:53 AM82 °FSunny.9 mph67%30.03 "Hg10 mi
9:53 AM79 °FSunny.12 mph72%30.03 "Hg10 mi
8:53 AM73 °FScattered clouds.3 mph88%30.04 "Hg8 mi
7:53 AM71 °FSunny.No wind93%30.03 "Hg7 mi
6:53 AM69 °FFog.3 mph96%30.01 "Hg4 mi
Weather by CustomWeather, © 2015

See weather overviewHow to use our weather pages